Location: Bartlow
(52.0833°N, 0.3167°E)
Time: 02:32:39
(UTC+00:00)

Cosmos 2266 Rocket - Pass Details

Date: 20 April 2024
Orbit: 934 x 1006 km, 82.9° (Epoch: 24 May)

Event Time Altitude Azimuth Distance (km) Brightness Sun altitude
Rises 02:21:04 0° 147° (SSE) 3,598 6.8 -19.2°
Reaches altitude 10° 02:23:58 10° 134° (SE) 2,651 6.2 -18.9°
Maximum altitude 02:28:42 25° 82° (E) 1,808 5.9 -18.4°
Drops below altitude 10° 02:33:27 10° 30° (NNE) 2,657 7.5 -18.0°
Sets 02:36:21 0° 18° (NNE) 3,608 8.2 -17.7°
